{"data":{"norad_id":57788,"epoch":"2026-09-20T00:58:46.431552Z","epoch_age_seconds":170785,"freshness":"FRESH","line1":"1 57788U 23134T   26263.04081518  .00000155  00000+0  15171-4 0  9993","line2":"2 57788  43.0033 165.5071 0001223 265.9689  94.1023 15.27576827169362","mean_motion":15.27576827,"eccentricity":0.0001223,"inclination_deg":43.0033,"raan_deg":165.5071,"arg_perigee_deg":265.9689,"mean_anomaly_deg":94.1023,"bstar":1.5171e-5,"rev_number":16936,"period_min":94.266944519446,"perigee_km":482.21947293805,"apogee_km":483.89772138111,"semimajor_km":6861.1955971596,"source":"CELESTRAK","updated_at":"2026-09-21T09:00:33.705715Z"}}